EW9525 Weather Reports


time (UTC)temp
C
wind
direction
speed
KPH
gust
KPH
rain 1hr
cm
rain 24hr
cm
rain mn
cm
humidity
%
barometer
mb
20260903164508 28 7 6.4 14.5 0.00 0.00 0.00 49 1005.2
20260903163005 27 16 3.2 19.3 0.00 0.00 0.00 50 1005.1
20260903161503 27 330 6.4 12.9 0.00 0.00 0.00 50 1005.3
20260903160109 27 305 4.8 11.3 0.00 0.00 0.00 53 1005.1
20260903154600 27 11 6.4 12.9 0.00 0.00 0.00 53 1005.0
20260903153057 26 9 4.8 9.7 0.00 0.00 0.00 55 1004.8
20260903151556 26 89 0.0 9.7 0.00 0.00 0.00 59 1004.8
20260903150057 25 210 3.2 9.7 0.00 0.00 0.00 59 1005.1
20260903144554 24 200 4.8 11.3 0.00 0.00 0.00 60 1005.1
20260903143046 23 185 1.6 9.7 0.00 0.00 0.00 63 1005.1
20260903141542 23 207 1.6 6.4 0.00 0.00 0.00 65 1005.1
20260903140040 23 202 0.0 6.4 0.00 0.00 0.00 66 1005.1
20260903134536 22 122 0.0 0.0 0.00 0.00 0.00 69 1005.1
20260903133034 21 113 0.0 0.0 0.00 0.00 0.00 74 1005.0
20260903131538 19 66 0.0 0.0 0.00 0.00 0.00 78 1005.0
20260903130041 18 86 0.0 0.0 0.00 0.00 0.00 79 1005.0
20260903124532 18 35 0.0 0.0 0.00 0.00 0.00 79 1004.8
20260903123035 17 79 0.0 0.0 0.00 0.00 0.00 80 1004.7
20260903121538 17 332 0.0 3.2 0.00 0.00 0.00 80 1004.7
20260903120029 17 307 1.6 6.4 0.00 0.00 0.00 78 1004.7
20260903114528 17 319 1.6 4.8 0.00 0.00 0.00 77 1004.5
20260903113034 17 321 3.2 4.8 0.00 0.00 0.00 76 1004.6
20260903111526 17 328 0.0 3.2 0.00 0.00 0.00 75 1004.6
20260903104524 17 323 1.6 4.8 0.00 0.00 0.00 75 1004.8
20260903103023 18 119 6.4 8.0 0.00 0.00 0.00 72 1004.5
20260903101522 18 31 0.0 6.4 0.00 0.00 0.00 72 1004.9
20260903100025 18 114 3.2 6.4 0.00 0.00 0.00 67 1004.8
20260903094543 18 59 0.0 1.6 0.00 0.00 0.00 68 1005.1
20260903093019 20 329 0.0 1.6 0.00 0.00 0.00 61 1005.0
20260903091521 20 321 0.0 3.2 0.00 0.00 0.00 58 1004.9
20260903090017 20 309 4.8 9.7 0.00 0.00 0.00 59 1004.9
20260903084516 18 316 0.0 3.2 0.00 0.00 0.00 70 1005.1
20260903083014 19 1 4.8 6.4 0.00 0.00 0.00 66 1005.0
20260903081512 21 230 0.0 0.0 0.00 0.00 0.00 57 1004.7
20260903080011 19 326 0.0 0.0 0.00 0.00 0.00 62 1004.8
20260903074510 19 76 0.0 0.0 0.00 0.00 0.00 64 1004.8
20260903073010 20 90 4.8 8.0 0.00 0.00 0.00 60 1005.0
20260903071505 20 234 0.0 3.2 0.00 0.00 0.00 54 1004.8
20260903070004 21 250 1.6 3.2 0.00 0.00 0.00 51 1004.8
20260903064503 21 260 3.2 6.4 0.00 0.00 0.00 50 1004.7
20260903063005 21 240 3.2 4.8 0.00 0.00 0.00 53 1004.7
20260903061501 22 242 3.2 6.4 0.00 0.00 0.00 51 1004.7
20260903060057 21 240 4.8 6.4 0.00 0.00 0.00 51 1004.5
20260903054557 20 228 1.6 3.2 0.00 0.00 0.00 56 1004.3
20260903053107 21 231 3.2 6.4 0.00 0.00 0.00 55 1004.3
20260903051556 21 235 3.2 4.8 0.00 0.00 0.00 56 1004.4
20260903050048 21 242 3.2 4.8 0.00 0.00 0.00 56 1004.1
20260903044554 21 231 3.2 4.8 0.00 0.00 0.00 56 1004.4
20260903043047 21 223 1.6 4.8 0.00 0.00 0.00 55 1004.5
20260903041548 22 231 3.2 4.8 0.00 0.00 0.00 53 1004.4
20260903040047 23 234 3.2 6.4 0.00 0.00 0.00 47 1004.4
20260903034547 24 257 3.2 4.8 0.00 0.00 0.00 45 1004.5
20260903033052 24 250 3.2 4.8 0.00 0.00 0.00 42 1004.3
20260903031545 24 240 3.2 4.8 0.00 0.00 0.00 44 1004.4
20260903030046 25 202 3.2 6.4 0.00 0.00 0.00 43 1004.2
20260903024546 26 245 3.2 4.8 0.00 0.00 0.00 38 1004.2
20260903023044 27 240 4.8 6.4 0.00 0.00 0.00 36 1004.0
20260903021555 27 245 3.2 4.8 0.00 0.00 0.00 34 1003.7
20260903020043 27 245 1.6 3.2 0.00 0.00 0.00 33 1003.7
20260903014547 28 217 0.0 0.0 0.00 0.00 0.00 31 1003.5
20260903013042 28 214 0.0 0.0 0.00 0.00 0.00 31 1003.3
20260903011544 28 200 0.0 3.2 0.00 0.00 0.00 32 1003.3
20260903010048 30 195 4.8 8.0 0.00 0.00 0.00 30 1003.1
20260903004552 32 183 8.0 11.3 0.00 0.00 0.00 26 1003.0
20260903003040 34 184 9.7 17.7 0.00 0.00 0.00 23 1003.2
20260903001539 35 201 16.1 24.1 0.00 0.00 0.00 21 1003.0
20260903000039 36 198 14.5 24.1 0.00 0.00 0.00 22 1003.0
20260902234537 36 181 17.7 27.4 0.00 0.00 0.00 22 1003.1
20260902233038 36 210 14.5 24.1 0.00 0.00 0.00 22 1003.2
20260902231545 36 169 11.3 19.3 0.00 0.00 0.00 24 1003.3
20260902230032 36 145 8.0 16.1 0.00 0.00 0.00 32 1003.3
20260902224530 35 152 12.9 19.3 0.00 0.00 0.00 32 1003.3
20260902223028 36 136 8.0 17.7 0.00 0.00 0.00 34 1003.5
20260902221526 35 162 11.3 19.3 0.00 0.00 0.00 33 1003.7
20260902220029 35 139 16.1 24.1 0.00 0.00 0.00 35 1003.9
20260902214523 35 131 14.5 25.7 0.00 0.00 0.00 36 1004.1
20260902213020 35 139 17.7 25.7 0.00 0.00 0.00 36 1004.3
20260902211518 35 107 11.3 22.5 0.00 0.00 0.00 34 1004.5
20260902210016 35 179 11.3 25.7 0.00 0.00 0.00 35 1004.7
20260902204529 35 159 11.3 19.3 0.00 0.00 0.00 37 1004.8
20260902203011 35 169 11.3 20.9 0.00 0.00 0.00 36 1005.1
20260902201519 34 117 12.9 22.5 0.00 0.00 0.00 38 1005.1
20260902200008 34 139 9.7 19.3 0.00 0.00 0.00 36 1005.3
20260902194508 33 136 8.0 20.9 0.00 0.00 0.00 38 1005.7
20260902193002 33 106 9.7 20.9 0.00 0.00 0.00 39 1005.7
20260902191503 33 94 11.3 17.7 0.00 0.00 0.00 39 1005.8
20260902190058 33 73 6.4 14.5 0.00 0.00 0.00 40 1006.1
20260902184555 32 151 3.2 14.5 0.00 0.00 0.00 38 1006.3
20260902183056 32 104 6.4 14.5 0.00 0.00 0.00 39 1006.6
20260902181559 32 108 6.4 12.9 0.00 0.00 0.00 39 1006.9
20260902180057 32 123 3.2 11.3 0.00 0.00 0.00 41 1007.0
20260902174545 32 244 6.4 16.1 0.00 0.00 0.00 39 1007.1
20260902173043 31 174 6.4 14.5 0.00 0.00 0.00 42 1007.3
20260902171542 31 189 8.0 11.3 0.00 0.00 0.00 43 1007.4
20260902170038 30 156 3.2 8.0 0.00 0.00 0.00 44 1007.6
20260902164547 30 256 4.8 12.9 0.00 0.00 0.00 44 1007.7